Location: ?????
(31.8092°N, 35.2590°E)
Time: 02:09:33
(UTC+00:00)

Okean-O - Pass Details

Date: 20 June 2021
Orbit: 638 x 640 km, 98.2° (Epoch: 04 August)

Event Time Altitude Azimuth Distance (km) Brightness Sun altitude
Rises 17:12:31 0° 182° (S) 2,928 5.7 -5.4°
Reaches altitude 10° 17:14:48 10° 190° (S) 2,023 5.0 -5.8°
Maximum altitude 17:18:58 41° 261° (W) 922 3.9 -6.6°
Drops below altitude 10° 17:23:10 10° 332° (NNW) 2,035 6.3 -7.3°
Sets 17:25:29 0° 339° (NNW) 2,948 7.0 -7.7°
